User: anonymous   Login
Location: Bergnerzell
(49.1816°N, 10.2565°E)
Time: 17:27:45
(UTC+00:00)
Language:

SL-27 R/B - Orbit

View from above orbital plane
View from above orbital plane
View from above satellite
View from above satellite

Ground track
Ground track

The orbit data is extracted from the following two-line orbital elements,

1 40354U 14084B   24205.51300314  .00088277  00000-0  43848-3 0  9995
2 40354  74.7215 130.1032 0017910 253.4732 106.4535 15.81374334540279
Epoch (UTC): 23 July 2024 12:18:43
Eccentricity: 0.0017910
inclination: 74.7215°
perigee height: 314 km
apogee height: 338 km
right ascension of ascending node: 130.1032°
argument of perigee: 253.4732°
revolutions per day: 15.81374334
mean anomaly at epoch: 106.4535°
orbit number at epoch: 54027

The dashed part of the orbit path shows where the satellite is in the earth's shadow,  

DLR